Location: London
(51.5166°N, 0.1046°W)
Time: 23:03:34
(UTC+01:00)

ISS - Visible Passes

Search period start: 28 May 2016 00:00
Search period end: 07 June 2016 00:00
Orbit: 402 x 404 km, 51.6° (Epoch: 28 May)

Date Brightness Start Highest point End Pass type
(mag) Time Alt. Az. Time Alt. Az. Time Alt. Az.
28 May -3.5 00:14:19 10° WSW 00:17:35 82° S 00:20:52 10° E visible
28 May -3.5 01:50:47 10° W 01:54:04 86° S 01:57:20 10° E visible
28 May -2.7 03:27:19 10° W 03:30:19 33° SSW 03:33:18 10° SE visible
28 May -1.9 21:46:23 10° SSW 21:48:48 19° SE 21:51:15 10° E visible
28 May -3.4 23:21:37 10° WSW 23:24:51 65° SSE 23:28:06 10° E visible
29 May -3.4 00:58:01 10° W 01:01:17 86° N 01:04:34 10° E visible
29 May -3.2 02:34:29 10° W 02:37:40 48° SSW 02:40:50 10° SE visible
29 May -3.1 22:29:00 10° SW 22:32:09 47° SSE 22:35:19 10° E visible
30 May -3.4 00:05:14 10° W 00:08:31 86° N 00:11:48 10° E visible
30 May -3.5 01:41:43 10° W 01:44:58 66° SSW 01:48:13 10° ESE visible
30 May -2.0 03:18:32 10° W 03:21:01 20° SW 03:23:29 10° SSE visible
30 May -3.4 23:12:28 10° W 23:15:45 85° S 23:19:01 10° E visible
31 May -3.5 00:48:56 10° W 00:52:13 83° S 00:55:30 10° ESE visible
31 May -2.6 02:25:31 10° W 02:28:26 30° SSW 02:28:43 29° SSW visible
31 May -3.4 22:19:44 10° WSW 22:23:00 70° SSE 22:26:15 10° E visible
31 May -3.4 23:56:10 10° W 23:59:27 88° N 00:02:44 10° E visible
01 Jun -3.1 01:32:40 10° W 01:35:48 44° SSW 01:35:59 43° SSW visible
01 Jun -3.3 23:03:23 10° W 23:06:40 86° N 23:09:57 10° E visible
02 Jun -3.4 00:39:51 10° W 00:43:06 61° SSW 00:44:13 35° SE visible
02 Jun -3.3 22:10:36 10° W 22:13:53 89° SSW 22:17:10 10° E visible
02 Jun -3.5 23:47:04 10° W 23:50:21 78° SSW 23:52:44 17° ESE visible
03 Jun -1.7 01:23:42 10° W 01:25:20 21° WSW 01:25:20 21° WSW visible
03 Jun -3.4 22:54:18 10° W 22:57:34 90° NW 23:00:52 10° E visible
04 Jun -2.9 00:30:48 10° W 00:33:53 39° SSW 00:34:00 39° SSW visible
04 Jun -3.3 22:01:30 10° W 22:04:47 85° N 22:08:04 10° E visible
04 Jun -3.3 23:37:59 10° W 23:41:12 56° SSW 23:42:46 26° SE visible
05 Jun -0.8 01:15:05 10° WSW 01:15:21 11° WSW 01:15:21 11° WSW visible
05 Jun -3.4 22:45:11 10° W 22:48:27 74° SSW 22:51:35 11° ESE visible
06 Jun -1.9 00:21:52 10° W 00:24:11 23° SW 00:24:11 23° SW visible
06 Jun -2.6 23:28:55 10° W 23:31:56 35° SSW 23:33:02 27° SSE visible
